Location: Central Coast NSW, Australia
(33.2407°S, 151.4316°E)
Time: 06:39:13
(UTC+10:00)

Envisat - Visible Passes

Search period start: 18 June 2019 00:00
Search period end: 28 June 2019 00:00
Orbit: 764 x 766 km, 98.1° (Epoch: 17 June)

Date Brightness Start Highest point End Pass type
(mag) Time Alt. Az. Time Alt. Az. Time Alt. Az.
18 Jun 5.8 05:02:19 10° E 05:04:23 12° ESE 05:06:27 10° SE visible
18 Jun 3.1 18:56:44 56° NE 18:56:44 56° NE 19:01:06 10° N visible
19 Jun 3.9 06:01:09 10° NNE 06:06:05 52° ESE 06:11:04 10° S visible
19 Jun 4.0 18:19:29 25° ENE 18:19:29 25° ENE 18:23:21 10° NNE visible
19 Jun 5.0 19:59:41 25° WNW 19:59:41 25° WNW 20:02:31 10° NW visible
20 Jun 5.3 05:25:41 10° ENE 05:29:35 23° ESE 05:33:31 10° SSE visible
20 Jun 3.4 19:22:27 58° NW 19:22:27 58° NW 19:26:37 10° NNW visible
21 Jun 3.1 06:26:25 10° NNE 06:31:32 85° WNW 06:36:42 10° SSW visible
21 Jun 3.3 18:45:12 46° ENE 18:45:12 46° ENE 18:49:42 10° N visible
21 Jun 5.8 20:25:24 14° W 20:25:24 14° W 20:26:36 10° WNW visible
22 Jun 4.3 05:50:10 10° NE 05:54:54 40° ESE 05:59:41 10° S visible
22 Jun 4.3 18:07:58 20° E 18:07:58 20° E 18:11:31 10° NE visible
22 Jun 4.5 19:48:10 34° WNW 19:48:10 34° WNW 19:51:39 10° NW visible
23 Jun 5.6 05:15:08 10° ENE 05:18:28 18° ESE 05:21:50 10° SSE visible
23 Jun 3.0 19:10:54 72° N 19:10:54 72° N 19:15:27 10° NNW visible
24 Jun 3.3 06:15:14 10° NNE 06:20:19 75° ESE 06:25:27 10° S visible
24 Jun 3.5 18:33:40 36° E 18:33:40 36° E 18:38:11 10° NNE visible
24 Jun 5.4 20:13:52 19° W 20:13:52 19° W 20:16:05 10° WNW visible
25 Jun 4.8 05:39:16 10° NE 05:43:45 31° ESE 05:48:14 10° S visible
25 Jun 4.6 17:56:25 15° E 17:56:32 15° E 17:59:25 10° NE visible
25 Jun 3.9 19:36:37 45° WNW 19:36:37 45° WNW 19:40:41 10° NNW visible
26 Jun 5.7 05:04:51 10° E 05:07:22 14° ESE 05:09:54 10° SE visible
26 Jun 2.9 18:59:22 67° ENE 18:59:22 67° ENE 19:04:10 10° N visible
27 Jun 3.7 06:04:07 10° NNE 06:09:06 58° ESE 06:14:09 10° S visible
27 Jun 3.8 18:22:06 28° E 18:22:15 28° E 18:26:35 10° NNE visible
27 Jun 5.0 20:02:18 25° W 20:02:18 25° W 20:05:23 10° NW visible
